Weather History for Imperial, CA

Change the Weather History Date:

Friday, December 20, 2013

  Actual Average Record
Temperature  
Mean Temperature 58 °F -  
Max Temperature 68 °F 68 °F 82 °F (1950)
Min Temperature 48 °F 42 °F 30 °F (1996)
Degree Days  
Heating Degree Days 7    
Growing Degree Days 8 (Base 50)    
Moisture  
Dew Point 35 °F    
Average Humidity 48    
Maximum Humidity 66    
Minimum Humidity 24    
Precipitation  
Precipitation 0.00 in - - ()
Sea Level Pressure  
Sea Level Pressure 29.76 in    
Wind  
Wind Speed 8 mph (WNW)    
Max Wind Speed 18 mph    
Max Gust Speed 26 mph    
Visibility 10 miles    
Events      
Averages and records for this station are not official NWS values.
T = Trace of Precipitation, MM = Missing Value Source: NWS Daily Summary

Daily Weather History Graph

Daily Weather History Graph

Search for Another Location

Airport:

Trip Planner

Search our weather history database for the weather conditions in past years. The results will help you decide how hot, cold, wet, or windy it might be!

Date:

Astronomy

Dec. 20, 2013 Rise Set
Actual Time 6:40 AM PST 4:39 PM PST
Civil Twilight 6:13 AM PST 5:07 PM PST
Nautical Twilight 5:42 AM PST 5:37 PM PST
Astronomical Twilight 5:12 AM PST 6:08 PM PST
Moon 7:55 PM PST (12/20) 8:45 AM PST (12/20)
Length of Visible Light 10h 53m
Length of Day
9h 59m
Waning Gibbous, 90% of the Moon is Illuminated
Dec 20
Waning Gibbous
Dec 25
Last Quarter
Jan 1
New
Jan 7
First Quarter
Jan 15
Full

Hourly Weather History & Observations

Time (PST) Temp. Dew Point Humidity Pressure Visibility Wind Dir Wind Speed Gust Speed Precip Events Conditions
12:53 AM 48.0 °F 37.0 °F 66% 29.68 in 10.0 mi West 6.9 mph - N/A   Partly Cloudy
1:53 AM 51.1 °F 37.0 °F 59% 29.68 in 10.0 mi WNW 5.8 mph - N/A   Overcast
2:53 AM 50.0 °F 37.9 °F 63% 29.69 in 10.0 mi West 3.5 mph - N/A   Overcast
3:53 AM 51.1 °F 37.0 °F 59% 29.69 in 10.0 mi West 5.8 mph - N/A   Overcast
4:53 AM 48.9 °F 36.0 °F 61% 29.69 in 10.0 mi West 4.6 mph - N/A   Mostly Cloudy
5:53 AM 48.0 °F 37.0 °F 66% 29.71 in 10.0 mi West 9.2 mph - N/A   Scattered Clouds
6:53 AM 48.0 °F 35.1 °F 61% 29.73 in 10.0 mi WNW 6.9 mph - N/A   Clear
7:53 AM 53.1 °F 37.0 °F 55% 29.75 in 10.0 mi West 9.2 mph - N/A   Clear
8:53 AM 59.0 °F 36.0 °F 42% 29.77 in 10.0 mi NW 8.1 mph - N/A   Clear
9:53 AM 63.0 °F 34.0 °F 34% 29.78 in 10.0 mi NNW 17.3 mph - N/A   Clear
10:53 AM 64.9 °F 33.1 °F 31% 29.77 in 10.0 mi NNW 17.3 mph 25.3 mph N/A   Clear
11:53 AM 66.0 °F 32.0 °F 28% 29.75 in 10.0 mi NW 18.4 mph 26.5 mph N/A   Clear
12:53 PM 66.9 °F 30.9 °F 26% 29.74 in 10.0 mi NNW 15.0 mph 21.9 mph N/A   Clear
1:53 PM 68.0 °F 30.0 °F 24% 29.74 in 10.0 mi NNW 18.4 mph 23.0 mph N/A   Clear
2:53 PM 68.0 °F 30.9 °F 25% 29.75 in 10.0 mi NNW 12.7 mph - N/A   Clear
3:53 PM 66.9 °F 30.9 °F 26% 29.75 in 10.0 mi NNW 11.5 mph - N/A   Clear
4:53 PM 62.1 °F 32.0 °F 32% 29.77 in 10.0 mi NNW 8.1 mph - N/A   Clear
5:53 PM 62.1 °F 35.1 °F 37% 29.79 in 10.0 mi Variable 5.8 mph - N/A   Clear
6:53 PM 55.0 °F 35.1 °F 47% 29.81 in 10.0 mi WNW 4.6 mph - N/A   Clear
7:53 PM 54.0 °F 37.0 °F 53% 29.82 in 10.0 mi WSW 5.8 mph - N/A   Clear
8:53 PM 51.1 °F 37.9 °F 61% 29.84 in 10.0 mi WSW 10.4 mph - N/A   Clear
9:53 PM 51.1 °F 39.0 °F 63% 29.85 in 10.0 mi Calm Calm - N/A   Clear
10:53 PM 50.0 °F 39.0 °F 66% 29.86 in 10.0 mi West 11.5 mph - N/A   Clear
11:53 PM 50.0 °F 39.0 °F 66% 29.87 in 10.0 mi West 6.9 mph - N/A   Clear